[[{"header":{"parameterUnit":"m.s-1","parameterCategory":1,"la1":30.2991,"la2":30.254,"lo1":-89.0895,"lo2":-89.0444,"dy":0.0017,"dx":0.0017,"nx":28,"ny":28,"refTime":"2026-02-01T03:00:00:Z","depth":0,"parameterNumber":2,"parameterNumberName":"U-component_of_WINDS"},"data":[0,0,0,0,0,0,0,0,0,0,0,0,0,0,0,0,0,0,0,0,0,0,0,0,0,0,0,0,0,0,0,0,0,0,0,0,0,0,0,0,0,0,0,0,0,0,0,0,0,0,0,0,0,0,0,0,0,0,2.1768,2.1769,0,2.1823,2.1824,2.1825,2.1825,2.1824,2.1824,2.1823,2.1878,2.188,2.1882,0,0,0,0,0,0,0,0,0,0,0,0,0,2.1662,2.1664,2.1768,2.1769,2.1769,2.1823,2.1824,2.1825,2.1825,2.1824,2.1823,2.1823,2.1877,2.188,2.1882,0,0,0,0,0,0,0,0,0,0,0,0,0,2.1712,2.1665,2.1768,2.1776,2.1777,2.1823,2.1824,2.1825,2.1825,2.1824,2.1823,2.1822,2.1876,2.188,2.1883,2.1923,0,0,2.1892,2.1894,0,0,0,0,0,0,0,0,2.1709,2.1716,2.1774,2.1776,2.1777,2.1816,2.1807,2.1858,2.1826,2.1807,2.1823,2.1822,2.1858,2.1863,2.1875,2.1926,2.1928,2.1893,2.1895,2.1896,2.1897,0,0,0,0,0,0,0,2.1705,2.1713,2.179,2.1775,2.1777,2.1777,2.1783,2.1816,2.1838,2.1809,2.1809,2.1815,2.1859,2.1872,2.1877,2.1929,2.1893,2.1895,2.1897,2.1899,2.2017,2.2018,0,0,0,0,0,0,2.1701,2.171,2.1788,2.1791,2.174,2.178,2.1786,2.1805,2.1837,2.1841,2.1816,2.1815,2.1867,2.1873,2.1879,2.1929,2.1896,2.1899,2.1901,2.2016,2.2017,2.2019,0,0,0,0,0,0,2.1698,2.1707,2.1786,2.1751,2.1761,2.1783,2.1803,2.1806,2.182,2.1843,2.1847,2.1826,2.1867,2.1874,2.1913,2.1931,2.19,2.1903,2.2014,2.2016,2.2018,2.2029,0,0,0,0,0,0,2.1695,2.1707,2.1722,2.1751,2.1763,2.1819,2.1804,2.1808,2.1826,2.1825,2.1854,2.1857,2.1867,2.1908,2.1916,2.1935,2.1906,2.2013,2.2015,2.2017,2.2027,2.2031,2.2035,0,0,0,0,0,2.1691,2.1723,2.1723,2.1732,2.1783,2.182,2.1826,2.1837,2.1827,2.1843,2.1858,2.1856,2.1928,2.1912,2.1921,2.1941,2.2012,2.2014,2.2017,2.2026,2.2031,2.2035,0,0,0,0,0,0,2.1694,2.1727,2.1727,2.1769,2.1792,2.182,2.184,2.1841,2.1867,2.1865,2.1877,2.1883,2.1922,2.1935,2.1917,2.1982,2.1968,2.1973,2.1972,2.1977,2.198,2.1976,2.1908,0,0,0,0,0,2.17,2.1727,2.1754,2.1788,2.18,2.1818,2.1835,2.1841,2.1865,2.1874,2.1892,2.1915,2.1943,2.1961,2.1987,2.203,2.2036,2.2048,2.2052,2.2055,2.2058,2.2082,2.2088,2.2028,2.2028,2.2028,0,0,2.1711,2.1732,2.1749,2.1789,2.1808,2.1836,2.1826,2.1856,2.1877,2.1879,2.1916,2.193,2.1957,2.1998,2.2016,2.201,2.2077,2.2058,2.206,2.2062,2.2086,2.2092,2.2097,2.203,2.2029,2.2029,0,0,2.1746,2.1765,2.1796,2.1815,2.1844,2.1856,2.1864,2.1892,2.1902,2.194,2.1942,2.1967,2.2014,2.2033,2.2049,2.2094,2.2093,2.2102,2.2121,2.2144,2.2149,2.2153,2.2169,2.2175,2.2106,2.2106,2.2106,0,2.1757,2.18,2.1812,2.1842,2.186,2.1864,2.1896,2.1913,2.1949,2.1961,2.1954,2.2014,2.2032,2.2078,2.2089,2.2102,2.2111,2.2098,2.2148,2.2152,2.2156,2.2172,2.2178,2.2107,2.2107,2.2107,2.2107,0,2.1811,2.1841,2.1863,2.1898,2.1918,2.1949,2.1966,2.1985,2.199,2.2004,2.2043,2.2065,2.2097,2.2108,2.2113,2.2155,2.215,2.2145,2.2131,2.2163,2.2177,2.2183,2.2108,2.2108,2.2108,2.2107,0,0,2.1848,2.1891,2.1899,2.1915,2.1948,2.1971,2.2002,2.2034,2.2051,2.2076,2.2102,2.2143,2.2139,2.2157,2.2164,2.2185,2.2219,2.2178,2.2179,2.2184,2.2268,2.2271,2.2277,2.222,2.2221,2.2222,2.2265,0,2.1887,2.1943,2.1955,2.2004,2.2032,2.2037,2.2064,2.2087,2.2101,2.2126,2.2141,2.217,2.2163,2.2174,2.2195,2.2211,2.2236,2.2208,2.2244,2.2246,2.2237,2.2285,2.2288,2.2327,2.2271,2.2272,2.2273,0,2.1938,2.1966,2.2017,2.2047,2.2059,2.2084,2.2115,2.2139,2.2166,2.2174,2.2196,2.2201,2.2234,2.222,2.2266,2.2246,2.2262,2.2273,2.2274,2.2277,2.226,2.2289,2.234,2.2346,2.2282,2.2281,2.228,0,2.196,2.201,2.2047,2.2061,2.2097,2.2114,2.213,2.2155,2.2174,2.2201,2.2214,2.2244,2.226,2.2284,2.2298,2.2286,2.2343,2.2329,2.235,2.235,2.2361,2.236,2.2415,2.2373,2.2372,2.2372,2.2372,0,2.2001,2.2032,2.2057,2.208,2.2115,2.213,2.2164,2.218,2.2203,2.2229,2.2236,2.226,2.2277,2.2304,2.2315,2.2352,2.2359,2.2367,2.2369,2.2366,2.2365,2.2376,2.2373,2.2374,2.2374,2.2373,2.2373,0,2.2031,2.2048,2.209,2.2121,2.213,2.2154,2.2181,2.2204,2.2218,2.2251,2.226,2.2282,2.2314,2.2331,2.2371,2.2378,2.2419,2.242,2.241,2.2411,2.2432,2.2429,2.2495,2.2505,2.2456,2.2456,2.2457,0,2.2055,2.208,2.2114,2.2132,2.2149,2.2178,2.2198,2.2213,2.2234,2.2267,2.2285,2.2318,2.2345,2.2396,2.2416,2.2446,2.2448,2.2469,2.2452,2.2449,2.2448,2.2446,2.2449,2.2472,2.2472,2.2472,2.2473,0,2.2097,2.2105,2.2134,2.2165,2.2189,2.2214,2.224,2.2254,2.2274,2.2297,2.233,2.2351,2.2392,2.2425,2.2457,2.2473,2.2477,2.2478,2.2485,2.2481,2.2474,2.2478,2.2418,2.2476,2.2476,2.2476,2.2475,2.2475,2.2125,2.2147,2.2175,2.2207,2.2228,2.2252,2.2275,2.2293,2.2321,2.2356,2.2364,2.2399,2.2426,2.2471,2.2488,2.2516,2.2512,2.2521,2.2523,2.2525,2.2526,2.2471,2.2522,2.2522,2.2522,2.2522,2.2522,0,2.2167,2.2186,2.2215,2.2251,2.2276,2.2278,2.2306,2.2327,2.2358,2.2383,2.241,2.2449,2.2481,2.2504,2.2537,2.2554,2.2557,2.2562,2.2561,2.2565,2.2528,2.2519,2.256,2.256,2.256,2.256,2.256,2.256,2.2192,2.223,2.2241,2.229,2.2308,2.2343,2.236,2.2382,2.2402,2.2446,2.2472,2.2488,2.2512,2.2547,2.2577,2.2583,2.2594,2.26,2.2606,2.2571,2.2567,2.2563,2.2555,2.2602,2.2602,2.264,2.264,2.264]},{"header":{"parameterUnit":"m.s-1","parameterCategory":1,"la1":30.2991,"la2":30.254,"lo1":-89.0895,"lo2":-89.0444,"dy":0.0017,"dx":0.0017,"nx":28,"ny":28,"refTime":"2026-02-01T03:00:00:Z","depth":0,"parameterNumber":3,"parameterNumberName":"V-component_of_WINDS"},"data":[0,0,0,0,0,0,0,0,0,0,0,0,0,0,0,0,0,0,0,0,0,0,0,0,0,0,0,0,0,0,0,0,0,0,0,0,0,0,0,0,0,0,0,0,0,0,0,0,0,0,0,0,0,0,0,0,0,0,-6.087,-6.0872,0,-6.1031,-6.1033,-6.1034,-6.1021,-6.1019,-6.1016,-6.1014,-6.1175,-6.1181,-6.1188,0,0,0,0,0,0,0,0,0,0,0,0,0,-6.0548,-6.0554,-6.087,-6.0872,-6.0874,-6.1031,-6.1033,-6.1035,-6.1022,-6.1019,-6.1016,-6.1013,-6.1173,-6.118,-6.1188,0,0,0,0,0,0,0,0,0,0,0,0,0,-6.0696,-6.0556,-6.0869,-6.0886,-6.0889,-6.103,-6.1033,-6.1036,-6.1022,-6.1019,-6.1015,-6.1012,-6.117,-6.118,-6.1189,-6.1323,0,0,-6.1219,-6.1223,0,0,0,0,0,0,0,0,-6.0688,-6.0708,-6.0882,-6.0885,-6.0889,-6.1002,-6.0978,-6.1132,-6.1023,-6.0972,-6.1014,-6.101,-6.112,-6.1134,-6.1172,-6.133,-6.1337,-6.122,-6.1226,-6.123,-6.1233,0,0,0,0,0,0,0,-6.0678,-6.0701,-6.0933,-6.0884,-6.0889,-6.0885,-6.0902,-6.1007,-6.1064,-6.0976,-6.0975,-6.0995,-6.1121,-6.1162,-6.1175,-6.1339,-6.122,-6.1229,-6.1235,-6.1238,-6.1617,-6.1621,0,0,0,0,0,0,-6.0664,-6.0693,-6.0928,-6.0938,-6.0778,-6.0893,-6.0913,-6.097,-6.1063,-6.1074,-6.0998,-6.0993,-6.1147,-6.1164,-6.1181,-6.1345,-6.123,-6.1239,-6.1245,-6.1613,-6.1618,-6.1622,0,0,0,0,0,0,-6.0657,-6.0685,-6.0922,-6.0815,-6.0845,-6.0903,-6.0967,-6.0975,-6.1016,-6.108,-6.1089,-6.1029,-6.1145,-6.1167,-6.1288,-6.135,-6.1244,-6.1253,-6.1608,-6.1614,-6.162,-6.1672,0,0,0,0,0,0,-6.0648,-6.0683,-6.0735,-6.0817,-6.0851,-6.1027,-6.0971,-6.098,-6.1033,-6.1029,-6.1112,-6.1122,-6.1144,-6.1274,-6.1298,-6.1362,-6.126,-6.1602,-6.1611,-6.1618,-6.1665,-6.168,-6.1692,0,0,0,0,0,-6.0637,-6.0742,-6.0737,-6.0766,-6.0917,-6.1031,-6.105,-6.1075,-6.1038,-6.1091,-6.1132,-6.1119,-6.1339,-6.1286,-6.1313,-6.1381,-6.1599,-6.1608,-6.1617,-6.1659,-6.1677,-6.1691,0,0,0,0,0,0,-6.0663,-6.0753,-6.0749,-6.0884,-6.095,-6.1028,-6.1095,-6.1092,-6.1169,-6.1162,-6.1187,-6.1206,-6.1328,-6.1366,-6.1306,-6.1516,-6.1464,-6.1479,-6.1487,-6.1504,-6.1517,-6.1505,-6.1269,0,0,0,0,0,-6.0685,-6.0771,-6.0844,-6.0956,-6.099,-6.1037,-6.1087,-6.1101,-6.117,-6.1197,-6.1247,-6.1314,-6.1398,-6.1453,-6.1533,-6.1671,-6.1689,-6.173,-6.1744,-6.1754,-6.1767,-6.1844,-6.1864,-6.1653,-6.1653,-6.1653,0,0,-6.0731,-6.079,-6.0843,-6.0963,-6.1016,-6.1104,-6.106,-6.1155,-6.122,-6.1211,-6.1329,-6.1368,-6.1444,-6.1574,-6.1634,-6.161,-6.183,-6.1766,-6.1774,-6.1782,-6.1856,-6.1876,-6.1893,-6.1659,-6.1658,-6.1657,0,0,-6.0859,-6.0913,-6.1013,-6.1067,-6.1149,-6.118,-6.1204,-6.1283,-6.131,-6.1429,-6.1424,-6.1502,-6.1646,-6.1701,-6.1747,-6.1899,-6.189,-6.1924,-6.1993,-6.2068,-6.2084,-6.2099,-6.2154,-6.2173,-6.1937,-6.1937,-6.1937,0,-6.0905,-6.1039,-6.1064,-6.1161,-6.1214,-6.1211,-6.1313,-6.1364,-6.1467,-6.1504,-6.1475,-6.1658,-6.1708,-6.1852,-6.1889,-6.1927,-6.1955,-6.1915,-6.208,-6.2095,-6.2109,-6.2162,-6.2183,-6.194,-6.194,-6.194,-6.1939,0,-6.1092,-6.1185,-6.1255,-6.1358,-6.1419,-6.1517,-6.1557,-6.1615,-6.1624,-6.1657,-6.1779,-6.184,-6.1934,-6.1969,-6.1977,-6.2115,-6.2097,-6.2074,-6.2023,-6.2133,-6.2183,-6.2203,-6.1946,-6.1944,-6.1943,-6.1942,0,0,-6.1241,-6.1358,-6.1383,-6.143,-6.1521,-6.1592,-6.169,-6.1784,-6.1834,-6.1906,-6.1989,-6.2112,-6.2092,-6.2145,-6.2159,-6.2224,-6.2342,-6.2193,-6.2196,-6.222,-6.2498,-6.2516,-6.2539,-6.2337,-6.2341,-6.2344,-6.2492,0,-6.138,-6.1556,-6.1582,-6.1736,-6.1823,-6.1822,-6.1908,-6.1972,-6.2007,-6.2084,-6.2121,-6.2209,-6.2175,-6.2208,-6.2272,-6.2314,-6.2398,-6.2303,-6.2414,-6.2418,-6.2396,-6.2565,-6.2583,-6.2721,-6.2512,-6.2515,-6.2518,0,-6.1564,-6.1643,-6.1807,-6.1888,-6.1925,-6.2001,-6.209,-6.2164,-6.2237,-6.2258,-6.2318,-6.2325,-6.2427,-6.2371,-6.2511,-6.2446,-6.2493,-6.252,-6.2526,-6.2538,-6.2475,-6.2582,-6.2765,-6.2786,-6.2548,-6.2546,-6.2544,0,-6.1659,-6.1805,-6.1923,-6.1963,-6.2059,-6.2113,-6.2155,-6.2225,-6.228,-6.2357,-6.2394,-6.2481,-6.2529,-6.2596,-6.2626,-6.2582,-6.2765,-6.2711,-6.2785,-6.2784,-6.2823,-6.2821,-6.3017,-6.2852,-6.2852,-6.2851,-6.2851,0,-6.1811,-6.1911,-6.1967,-6.2039,-6.2152,-6.2181,-6.2291,-6.2331,-6.2394,-6.2474,-6.2478,-6.2552,-6.2587,-6.2667,-6.2691,-6.2804,-6.2825,-6.2844,-6.285,-6.2845,-6.2843,-6.2876,-6.2868,-6.2857,-6.2856,-6.2855,-6.2854,0,-6.1935,-6.1976,-6.2104,-6.2186,-6.2209,-6.2288,-6.2358,-6.2428,-6.2462,-6.2563,-6.2588,-6.2642,-6.2736,-6.2773,-6.2887,-6.2903,-6.3034,-6.3031,-6.301,-6.3012,-6.3084,-6.3077,-6.331,-6.3342,-6.3155,-6.3156,-6.3158,0,-6.203,-6.2108,-6.2198,-6.2253,-6.2298,-6.2385,-6.2442,-6.2474,-6.2533,-6.2623,-6.2682,-6.2777,-6.2854,-6.3005,-6.3053,-6.3141,-6.3141,-6.3217,-6.3154,-6.3148,-6.3144,-6.3139,-6.3148,-6.3228,-6.323,-6.3232,-6.3233,0,-6.2195,-6.2212,-6.2294,-6.2385,-6.2454,-6.2526,-6.2597,-6.2641,-6.2683,-6.2749,-6.2847,-6.2907,-6.3025,-6.3119,-6.321,-6.3252,-6.3251,-6.3252,-6.3274,-6.327,-6.3256,-6.3266,-6.3043,-6.3247,-6.3246,-6.3245,-6.3244,-6.3243,-6.2308,-6.2378,-6.2453,-6.2546,-6.2602,-6.2669,-6.2739,-6.2783,-6.2866,-6.2966,-6.2979,-6.3084,-6.3156,-6.3278,-6.3324,-6.3406,-6.3386,-6.3418,-6.3426,-6.3433,-6.3439,-6.3242,-6.3423,-6.3422,-6.3422,-6.3422,-6.3422,0,-6.2474,-6.2523,-6.2608,-6.2708,-6.2781,-6.2773,-6.2851,-6.2913,-6.3005,-6.3073,-6.315,-6.3263,-6.3355,-6.3411,-6.3503,-6.3558,-6.3559,-6.3581,-6.3578,-6.3588,-6.3451,-6.3424,-6.3579,-6.3578,-6.3578,-6.3578,-6.3578,-6.3578,-6.2569,-6.2687,-6.2714,-6.286,-6.2908,-6.3012,-6.3057,-6.3118,-6.3173,-6.33,-6.3376,-6.3413,-6.3477,-6.3574,-6.3657,-6.3671,-6.3705,-6.3729,-6.3742,-6.3613,-6.3597,-6.3582,-6.3556,-6.3736,-6.3736,-6.3872,-6.3873,-6.3874]}]]